Погода в Могоче

Погода в Могоче : погода сейчас, прогноз погоды и архив. Всё, что Вы хотите узнать о погоде в Могоче!

Хотите узнать прогноз погоды в Могоче? Тогда Вам сюда: Погода в Могоче

Поиск расширенной информации на нашем сайте:

Другие новости

Новости СМИ2

Главная страница сайта

Новости сайта

03.07.2017

Напоминаем, что на нашем специализированном сайте Метеоцентр.Азия вы можете получить высокодетализированные автоматические прогнозы погоды по пунктам России, СНГ и мира в авиационном формате (включающие направление и скорость ветра, видимость, явления погоды, количество и форму облачности, нижнюю и верхнюю границу облачности).

Рекомендуем: предлагаются помещения продажа офиса в БЦ Eurasia Tower в деловом центре Москва Сити

Погода в Могоче - сегодня

Время (UTC), дата Ветер
(°,м/с) 
Видим.   Явления Облачность Т
(°С)
Тd
(°С)
f(%) Тe
(°С)
Pmin
(гПа)
dP
(гПа)
Po
(мм)
O2
(г/м3)
Тmin Tmax R s Состояние
почвы
03 22.11.17 тихо ()   20000 м    ясно 
-18.4 -24.4 59 -18  1016.6  0.1  702  305           
06 22.11.17 290 (З) 20000 м    8/0 средняя, верхняя 
[Ac lent|Cs]
-12.8 -24.7 36 -16  1014.7  0.1  702  298           
09 22.11.17 260 (З) 20000 м    9/0 средняя, верхняя 
[Ac As|Cs]
-17.2 -26.4 45 -20  1017.6  1.3  703  304           
12 22.11.17 290 (З) 20000 м    10/0 верхняя 
[Cs]
-18.7 -26.3 51 -21  1019  0.9  703  306    -10.1       
15 22.11.17 270 (З) 20000 м    10/0 верхняя 
[Cs]
-20.7 -26.5 60 -25  1020.6  0.9  704  309           
18 22.11.17 030 (СВ) 20000 м    9/0 верхняя 
[Cs]
-23 -27 70 -23  1022.4  0.8  705  312           
21 22.11.17 тихо ()   20000 м    4/0 верхняя 
[Cs]
-24.5 -27.9 73 -25  1023.4  0.5  705  314           
00 23.11.17 тихо ()   20000 м    10/0 средняя, верхняя 
[As trans|Cs]
-25.9 -29.1 74 -26  1024.9  0.9  706  316  -26      равномерный
сухой снег
100% 
03 23.11.17 тихо ()   20000 м    4/0 верхняя 
[Cs]
-18.9 -23.9 65 -19  1022.9  0.4  706  307           
06 23.11.17 310 (СЗ) 20000 м    8/6 1000 м кучево-дожд., верхняя 
[Cb calv|Cs]
-14.9 -23.9 46 -19  1021.2  -0.4  706  302           
09 23.11.17 140 (ЮВ) 20000 м    ясно 
-20.5 -25.6 64 -21  1023.6  0.5  706  309           
12 23.11.17 тихо ()   20000 м    4/0 верхняя 
[Cs]
-26 -29.4 73 -26  1025.8  0.3  706  316    -14.3       
15 23.11.17 тихо ()   20000 м    3/0 верхняя 
[Cs]
-29.9 -33.4 71 -30  1027  -0.2  706  321           
18 23.11.17 тихо ()   20000 м    3/0 верхняя 
[Cs]
-31.9 -35.7 69 -32  1027.4  -0.3  706  324           
21 23.11.17 тихо ()   20000 м    1/0 верхняя 
[Cs]
-33.1 -37 68 -33  1027.6  -0.2  706  325           
00 24.11.17 080 (В) 20000 м    ясно 
-34.5 -38.6 66 -35  1028.4  0.3  706  327  -34.5      равномерный
сухой снег
100% 
03 24.11.17 080 (В) 20000 м    ясно 
-27.1 -31.3 68 -28  1025.1  -0.6  705  317  -34.6         
06 24.11.17 тихо ()   20000 м    ясно 
-19 -26.6 51 -19  1020.1  -2  704  306           
09 24.11.17 тихо ()   20000 м    ясно 
-25.8 -29.8 69 -26  1022.5  0.1  704  315           
12 24.11.17 тихо ()   20000 м    ясно 
-30.2 -33.8 71 -30  1024.6  0.4  704  321    -17.8       
15 24.11.17 тихо ()   20000 м    ясно 
-33.1 -36.9 69 -33  1025.3  -0.3  704  325           
18 24.11.17 тихо ()   20000 м    ясно 
-34.7 -38.8 66 -35  1025.9  704  327           
21 24.11.17 040 (СВ) 20000 м    ясно 
-35.8 -40 65 -37  1026.2  0.1  704  328           
00 25.11.17 тихо ()   20000 м    8/0 верхняя 
[Cs]
-36.4 -40.8 64 -36  1027.1  0.5  704  329  -36.6      равномерный
сухой снег
100% 
03 25.11.17 тихо ()   20000 м    8/0 верхняя 
[Cs]
-29.8 -33.7 69 -30  1024.9  0.3  705  321           
Время (UTC), дата Ветер
(°,м/с) 
Видим.   Явления Облачность Т
(°С)
Тd
(°С)
f(%) Тe
(°С)
Pmin
(гПа)
dP
(гПа)
Po
(мм)
O2
(г/м3)
Тmin Tmax R s Состояние
почвы

Для получения пояснительной информации подведите курсор к названию столбца.

ПОГОДА в Могоче - архив

Всё, что Вы хотите узнать о погоде в Могоче - удобно и подробно!

Выберите нужную дату (начиная с 1 января 2015* года) и нажмите кнопку "Найти".
Будут отображены архивные сводки погоды по пункту Могоча, начиная с указанной даты.


Отображать данные в формате CSV (для использования в таблицах Excel)


Внимание! Наш архив погоды предназначен исключительно для личного некоммерческого использования в познавательных целях. Если Вам необходимы официальные справки о состоянии погоды (для производственных, юридических, коммерческих и т.п. целей), обращайтесь в органы Росгидромета.

*Примечание: данная дата относится к архиву по метеостанциям СССР (Россия, СНГ, Балтия).
Архив по метеостанциям Зарубежной Европы и Азии (кроме Китая) хранится 10 дней, по другим регионам земного шара (Китай, Африка, Америка, Австралия, Океания) - 1 день.

Могоча - район местоположения метеостанции


Название, широта, долгота, высота метеостанции:
Могоча 53.8°ш. 119.7°д. 625 м над ур. моря [Российская Федерация]

Дополнительная информация

В oтличие oт бoльшинства пoгoдных сайтoв мы публикуем пoдрoбную метеoинфoрмацию в детальнoм прoфессиoнальнoм фoрмате.

Характеристики температуры и влажнoсти вoздуха измеряются на высoте 2 м в тени вдали oт зданий и деревьев.
Скoрoсть ветра измеряется на высoте 10 м (на урoвне рoста челoвека скoрoсть ветра ниже в 1.5-2 раза). Если метеoстанция нахoдится в гoрoде или в лесу, тo скoрoсть ветра занижена на 2-4 м/с пo сравнению с oткрытым местoм. Скoрoсть ветра над акватoриями крупных рек и oзёр, а также на вершинах хoлмoв на 2-5 м/с выше, чем в oбычных услoвиях.
Атмoсфернoе давление в разных тoчках местнoсти мoжет значительнo oтличаться oт давления на метеoстанции, в зависимoсти oт услoвий рельефа (при пoдъёме на 10 м давление пoнижается примернo на 1 мм рт.ст.).